FW5282 Weather Reports


Display with metric or nautical units.
time (UTC)temp
F
wind
direction
speed
MPH
gust
MPH
rain 1hr
in
rain 24hr
in
rain mn
in
humidity
%
barometer
mb
20260506114528 54 355 3.0 8.0 0.00 0.43 0.07 85 1008.8
20260506114102 54 348 3.0 8.0 0.00 0.43 0.07 85 1008.8
20260506113552 54 333 3.0 8.0 0.00 0.43 0.07 85 1008.8
20260506113033 53 355 2.0 6.0 0.00 0.43 0.07 87 1008.8
20260506112541 53 339 2.0 6.0 0.00 0.43 0.07 88 1008.7
20260506112041 53 16 2.0 5.0 0.00 0.43 0.07 88 1008.8
20260506111530 53 343 1.0 5.0 0.00 0.43 0.07 89 1008.8
20260506111044 52 344 2.0 5.0 0.00 0.43 0.07 88 1008.7
20260506110542 52 355 2.0 8.0 0.00 0.43 0.07 88 1008.7
20260506110055 52 355 3.0 8.0 0.00 0.75 0.07 87 1008.7
20260506105532 52 347 2.0 6.0 0.00 0.75 0.07 88 1008.7
20260506105032 52 335 3.0 8.0 0.00 0.75 0.07 87 1008.7
20260506104540 52 16 3.0 9.0 0.00 0.75 0.07 87 1008.7
20260506104038 52 19 3.0 10.0 0.00 0.75 0.07 87 1008.7
20260506103531 52 5 4.0 10.0 0.00 0.75 0.07 89 1008.6
20260506103029 52 347 4.0 9.0 0.00 0.75 0.07 88 1008.6
20260506102541 52 335 2.0 12.0 0.00 0.75 0.07 89 1008.6
20260506102028 52 19 5.0 12.0 0.00 0.75 0.07 89 1008.6
20260506101530 52 355 8.0 12.0 0.00 0.75 0.07 88 1008.5
20260506101055 52 338 5.0 11.0 0.00 0.75 0.07 90 1008.5
20260506100539 52 17 5.0 12.0 0.00 0.75 0.07 90 1008.4
20260506100034 52 14 5.0 14.0 0.00 0.83 0.07 89 1008.4
20260506095532 52 355 9.0 14.0 0.00 0.83 0.07 88 1008.3
20260506095032 52 19 8.0 14.0 0.00 0.83 0.07 89 1008.2
20260506094537 52 22 8.0 13.0 0.00 0.83 0.07 90 1008.2
20260506094033 52 355 8.0 13.0 0.00 0.83 0.07 89 1008.1
20260506093532 52 335 7.0 14.0 0.00 0.83 0.07 89 1008.0
20260506093031 52 13 9.0 14.0 0.00 0.83 0.07 90 1008.0
20260506092601 52 355 7.0 12.0 0.00 0.83 0.07 90 1008.0
20260506092045 52 360 7.0 16.0 0.00 0.83 0.07 91 1007.9
20260506091528 51 67 11.0 16.0 0.04 0.83 0.07 91 1007.8
20260506091027 51 355 9.0 13.0 0.04 0.83 0.07 92 1007.8
20260506090534 51 344 6.0 14.0 0.04 0.83 0.07 93 1007.8
20260506090035 51 355 10.0 17.0 0.04 1.22 0.07 92 1007.7
20260506085546 51 9 9.0 17.0 0.04 1.22 0.07 93 1007.7
20260506085045 51 5 8.0 15.0 0.04 1.22 0.07 93 1007.6
20260506084534 51 13 10.0 15.0 0.04 1.22 0.07 93 1007.5
20260506084034 51 346 10.0 15.0 0.04 1.22 0.07 93 1007.6
20260506083540 51 348 9.0 14.0 0.04 1.22 0.07 93 1007.5
20260506083038 51 340 7.0 14.0 0.04 1.22 0.07 94 1007.5
20260506082530 51 10 9.0 15.0 0.04 1.22 0.07 94 1007.4
20260506082027 51 5 9.0 14.0 0.04 1.22 0.07 93 1007.5
20260506081541 51 342 7.0 13.0 0.00 1.18 0.06 94 1007.4
20260506081043 51 355 6.0 12.0 0.00 1.18 0.06 95 1007.3
20260506080528 51 22 7.0 12.0 0.00 1.18 0.06 95 1007.2
20260506073042 51 355 7.0 13.0 0.04 1.85 0.06 96 1007.0
20260506072542 51 5 7.0 13.0 0.08 1.85 0.06 96 1006.8
20260506072027 51 13 8.0 13.0 0.08 1.85 0.06 96 1006.8
20260506071536 51 17 8.0 11.0 0.08 1.85 0.06 96 1006.8
20260506071045 51 350 5.0 10.0 0.08 1.85 0.06 96 1006.8
20260506070531 51 355 4.0 11.0 0.08 1.85 0.06 97 1006.7
20260506062042 51 360 5.0 10.0 0.04 2.64 0.05 96 1006.3
20260506061538 51 23 3.0 10.0 0.04 2.64 0.05 96 1006.3
20260506061033 51 344 5.0 10.0 0.04 2.64 0.05 96 1006.3
20260506060526 51 351 4.0 8.0 0.04 2.64 0.05 96 1006.2
20260506060105 51 16 4.0 9.0 0.04 2.83 0.05 96 1006.1
20260506051050 51 355 4.0 9.0 0.00 2.80 0.04 96 1005.7
20260506050535 51 5 3.0 9.0 0.00 2.80 0.04 96 1005.6
20260506045034 51 355 3.0 11.0 0.00 2.80 0.04 96 1005.5
20260506044540 51 5 5.0 9.0 0.00 2.80 0.04 96 1005.5
20260506044046 51 9 5.0 12.0 0.04 2.80 0.04 96 1005.5
20260506043537 51 355 7.0 12.0 0.04 2.80 0.04 96 1005.4
20260506043033 51 360 5.0 15.0 0.04 2.80 0.04 96 1005.4
20260506042538 51 348 7.0 15.0 0.04 2.80 0.04 96 1005.3
20260506042039 51 348 4.0 12.0 0.04 2.80 0.04 96 1005.3
20260506041549 51 350 6.0 13.0 0.04 2.80 0.04 96 1005.2
20260506041028 52 333 7.0 13.0 0.04 2.80 0.04 97 1005.2
20260506040556 52 328 8.0 10.0 0.04 2.80 0.04 97 1005.1
20260506040028 52 344 5.0 9.0 0.04 2.87 0.04 97 1005.1
20260506035539 52 343 5.0 9.0 0.04 2.87 0.04 97 1005.1
20260506035040 52 342 4.0 9.0 0.04 2.87 0.04 97 1005.2
20260506034544 52 346 3.0 10.0 0.00 2.83 0.03 97 1005.3
20260506034043 52 348 4.0 10.0 0.04 2.83 0.03 96 1005.3
20260506033536 52 12 6.0 11.0 0.04 2.83 0.03 97 1005.3
20260506033030 52 355 7.0 11.0 0.04 2.83 0.03 96 1005.2
20260506032539 52 9 5.0 11.0 0.04 2.83 0.03 96 1005.3
20260506032037 52 322 6.0 11.0 0.04 2.83 0.03 96 1005.3
20260506031541 52 355 4.0 9.0 0.08 2.83 0.03 96 1005.2
20260506031053 52 341 4.0 9.0 0.08 2.83 0.03 97 1005.2
20260506030534 52 315 4.0 10.0 0.08 2.83 0.03 97 1005.2
20260506030031 52 332 5.0 10.0 0.08 2.99 0.03 96 1005.2
20260506025532 52 338 6.0 14.0 0.08 2.99 0.03 96 1005.2
20260506025036 53 10 6.0 14.0 0.08 2.99 0.03 96 1005.3
20260506024540 53 340 4.0 9.0 0.08 2.99 0.03 96 1005.3
20260506024042 53 336 5.0 9.0 0.04 2.95 0.02 96 1005.3
20260506023531 53 16 4.0 9.0 0.04 2.95 0.02 96 1005.3
20260506023037 53 360 4.0 6.0 0.04 2.95 0.02 96 1005.3
20260506022541 53 345 3.0 6.0 0.04 2.95 0.02 96 1005.4
20260506022045 53 325 1.0 5.0 0.04 2.95 0.02 96 1005.4
20260506021534 53 284 2.0 7.0 0.00 2.91 0.02 97 1005.4
20260506021029 53 267 3.0 7.0 0.00 2.91 0.02 97 1005.3
20260506020542 53 264 1.0 4.0 0.04 2.91 0.02 97 1005.2
20260506020058 53 268 1.0 5.0 0.04 2.91 0.02 97 1005.2
20260506015552 53 221 2.0 5.0 0.04 2.91 0.02 96 1005.3
20260506015047 53 234 1.0 4.0 0.08 2.91 0.02 96 1005.3
20260506014535 53 223 2.0 4.0 0.08 2.91 0.02 96 1005.3
20260506014034 53 234 2.0 4.0 0.08 2.91 0.02 96 1005.4
20260506013539 53 219 2.0 5.0 0.08 2.91 0.02 96 1005.5
20260506013036 53 220 2.0 5.0 0.08 2.91 0.02 96 1005.5
20260506012541 53 233 1.0 7.0 0.08 2.91 0.02 96 1005.5
20260506012034 53 235 3.0 8.0 0.08 2.91 0.02 96 1005.5
20260506011604 53 288 2.0 8.0 0.08 2.91 0.02 96 1005.5
20260506011036 53 284 2.0 6.0 0.08 2.91 0.02 96 1005.5
20260506010537 53 247 2.0 8.0 0.04 2.87 0.01 96 1005.6
20260506010037 53 250 2.0 8.0 0.04 2.87 0.01 96 1005.7
20260506005542 54 252 3.0 5.0 0.04 2.87 0.01 96 1005.7
20260506005038 54 235 2.0 6.0 0.00 2.83 0.00 96 1005.7
20260506004558 54 219 3.0 5.0 0.00 2.83 0.00 96 1005.8
20260506004033 54 219 1.0 5.0 0.00 2.83 0.00 96 1005.8
20260506003535 54 250 2.0 6.0 0.00 2.83 0.00 96 1005.9
20260506003037 54 211 2.0 5.0 0.00 2.83 0.00 96 1006.0
20260506002541 54 209 2.0 4.0 0.00 2.83 0.00 96 1006.0
20260506002042 54 198 1.0 5.0 0.00 2.83 0.00 96 1006.1
20260506001553 54 227 2.0 5.0 0.00 2.83 0.00 96 1006.1
20260506001039 54 246 2.0 4.0 0.00 2.83 0.00 96 1006.0
20260506000546 54 225 2.0 3.0 0.00 2.83 0.00 96 1006.0
20260506000045 54 242 1.0 3.0 0.00 2.83 0.57 96 1006.0
20260505235607 54 245 1.0 3.0 0.00 2.83 0.57 96 1006.1
20260505235050 54 236 1.0 4.0 0.00 2.83 0.57 96 1006.1
20260505234534 54 209 1.0 4.0 0.00 2.83 0.57 96 1006.1
20260505234033 54 209 1.0 4.0 0.00 2.83 0.57 96 1006.2
20260505233539 54 276 1.0 4.0 0.00 2.83 0.57 96 1006.1
20260505233043 54 238 2.0 4.0 0.00 2.83 0.57 96 1006.1
20260505232529 54 254 1.0 4.0 0.00 2.83 0.57 96 1006.2
20260505232029 54 281 2.0 5.0 0.00 2.83 0.57 96 1006.1
20260505231540 54 304 2.0 5.0 0.00 2.83 0.57 96 1006.1
20260505231043 54 279 2.0 4.0 0.00 2.83 0.57 96 1006.1
20260505230532 54 292 1.0 4.0 0.00 2.83 0.57 96 1006.2
20260505230043 54 282 1.0 5.0 0.00 2.83 0.57 96 1006.2
20260505225535 54 292 1.0 4.0 0.00 2.83 0.57 96 1006.3
20260505225030 54 284 2.0 4.0 0.00 2.83 0.57 96 1006.4
20260505224540 54 276 2.0 6.0 0.00 2.83 0.57 96 1006.4
20260505224105 54 283 1.0 6.0 0.00 2.83 0.57 96 1006.4
20260505223529 54 246 2.0 5.0 0.00 2.83 0.57 96 1006.4
20260505223051 54 234 2.0 5.0 0.00 2.83 0.57 96 1006.4
20260505222602 54 237 1.0 2.0 0.00 2.83 0.57 96 1006.4
20260505222036 54 286 1.0 2.0 0.00 2.83 0.57 96 1006.5
20260505221545 54 280 1.0 2.0 0.00 2.83 0.57 96 1006.4
20260505221046 54 275 0.0 4.0 0.00 2.83 0.57 96 1006.4
20260505220534 54 281 1.0 4.0 0.00 2.83 0.57 96 1006.5
20260505220034 54 276 1.0 4.0 0.00 2.83 0.57 96 1006.4
20260505215539 54 315 1.0 6.0 0.00 2.83 0.57 96 1006.5
20260505215039 54 293 1.0 8.0 0.00 2.83 0.57 96 1006.4
20260505214542 54 311 3.0 8.0 0.00 2.83 0.57 96 1006.4
20260505214041 54 299 4.0 6.0 0.00 2.83 0.57 96 1006.4
20260505213541 54 302 3.0 7.0 0.00 2.83 0.57 96 1006.3
20260505213028 54 305 3.0 6.0 0.00 2.83 0.57 96 1006.4
20260505212532 54 288 2.0 5.0 0.00 2.83 0.57 96 1006.4
20260505212105 54 283 1.0 4.0 0.00 2.83 0.57 96 1006.4
20260505211551 54 303 1.0 7.0 0.00 2.83 0.57 96 1006.4
20260505211035 54 256 1.0 7.0 0.00 2.83 0.57 96 1006.4
20260505210539 54 273 1.0 4.0 0.00 2.83 0.57 96 1006.5
20260505210047 54 304 1.0 5.0 0.00 2.83 0.57 96 1006.5
20260505205533 54 286 1.0 5.0 0.04 2.83 0.57 96 1006.4
20260505205031 54 258 1.0 7.0 0.04 2.83 0.57 96 1006.4
20260505204542 54 255 2.0 7.0 0.04 2.83 0.57 96 1006.4
20260505204042 54 302 1.0 8.0 0.04 2.83 0.57 96 1006.5
20260505203529 54 303 3.0 8.0 0.04 2.83 0.57 96 1006.4
20260505203031 54 309 2.0 7.0 0.04 2.83 0.57 96 1006.4
20260505202542 54 315 2.0 8.0 0.04 2.83 0.57 96 1006.4
20260505202036 54 325 3.0 9.0 0.04 2.83 0.57 96 1006.3
20260505201538 55 270 4.0 9.0 0.04 2.83 0.57 96 1006.3
20260505201105 55 312 5.0 11.0 0.04 2.83 0.57 96 1006.2
20260505200533 55 330 6.0 11.0 0.04 2.83 0.57 95 1006.2
20260505200044 55 321 5.0 11.0 0.04 2.83 0.57 95 1006.1
20260505195603 55 305 6.0 11.0 0.00 2.80 0.56 95 1006.0
20260505195038 55 321 5.0 10.0 0.00 2.80 0.56 95 1006.0
20260505194546 55 333 6.0 11.0 0.00 2.80 0.56 95 1005.9
20260505194035 55 300 5.0 9.0 0.00 2.80 0.56 95 1005.8
20260505193537 55 295 4.0 11.0 0.00 2.80 0.56 95 1005.8
20260505193037 55 278 5.0 11.0 0.00 2.80 0.56 95 1005.7
20260505192547 55 290 2.0 10.0 0.00 2.80 0.56 95 1005.6
20260505192031 55 344 6.0 10.0 0.00 2.80 0.56 95 1005.6
20260505191532 55 329 4.0 12.0 0.00 2.80 0.56 95 1005.5
20260505191032 56 303 7.0 16.0 0.00 2.80 0.56 95 1005.5
20260505190556 56 317 8.0 16.0 0.00 2.80 0.56 95 1005.4
20260505190035 56 298 10.0 14.0 0.00 2.80 0.56 95 1005.3
20260505185538 56 318 6.0 12.0 0.00 2.80 0.56 95 1005.1
20260505185044 55 333 6.0 12.0 0.00 2.80 0.56 95 1005.0
20260505184535 56 273 5.0 12.0 0.00 2.80 0.56 95 1004.9
20260505184035 56 273 3.0 12.0 0.00 2.80 0.56 95 1004.9
20260505183532 56 275 4.0 13.0 0.00 2.80 0.56 95 1004.8
20260505183031 56 302 5.0 13.0 0.00 2.80 0.56 94 1004.7
20260505182541 56 275 5.0 11.0 0.00 2.80 0.56 94 1004.6
20260505182037 56 225 6.0 13.0 0.00 2.80 0.56 94 1004.6
20260505181541 56 257 6.0 13.0 0.00 2.80 0.56 93 1004.5
20260505181041 56 294 6.0 13.0 0.00 2.80 0.56 93 1004.6
20260505180606 56 227 3.0 11.0 0.04 2.80 0.56 93 1004.5
20260505180032 56 231 3.0 11.0 0.04 2.80 0.56 93 1004.5
20260505175542 56 272 4.0 16.0 0.04 2.80 0.56 93 1004.6
20260505175025 56 215 6.0 16.0 0.04 2.80 0.56 93 1004.5
20260505174602 56 188 5.0 14.0 0.04 2.80 0.56 93 1004.6
20260505174040 56 214 5.0 14.0 0.04 2.80 0.56 94 1004.4
20260505173545 56 252 5.0 18.0 0.04 2.80 0.56 93 1004.4
20260505173047 57 234 6.0 18.0 0.04 2.80 0.56 93 1004.5
20260505172529 56 236 4.0 11.0 0.04 2.80 0.56 93 1004.3
20260505172028 57 232 6.0 14.0 0.04 2.80 0.56 93 1004.4
20260505171531 57 236 7.0 14.0 0.04 2.80 0.56 93 1004.4
20260505171032 57 263 4.0 14.0 0.04 2.80 0.56 92 1004.4
20260505170540 57 291 4.0 14.0 0.00 2.76 0.55 91 1004.4
20260505170044 58 161 3.0 19.0 0.00 2.76 0.55 90 1004.6
20260505165613 59 212 6.0 19.0 0.00 2.76 0.55 89 1004.4
20260505165044 60 242 5.0 12.0 0.00 2.76 0.55 86 1004.4
20260505164545 60 235 7.0 13.0 0.00 2.76 0.55 85 1004.1
20260505164046 60 184 4.0 13.0 0.00 2.76 0.55 84 1004.4
20260505163539 61 255 5.0 11.0 0.00 2.76 0.55 82 1004.4
20260505163036 61 221 3.0 10.0 0.00 2.76 0.55 84 1004.5
20260505162547 62 195 4.0 10.0 0.00 2.76 0.55 83 1004.5
20260505162107 62 219 4.0 8.0 0.00 2.76 0.55 83 1004.6
20260505161531 62 238 2.0 8.0 0.00 2.76 0.55 85 1004.6
20260505161029 61 184 3.0 8.0 0.00 2.76 0.55 85 1004.7
20260505160600 61 196 1.0 7.0 0.00 2.76 0.55 83 1004.6
20260505153032 62 234 6.0 11.0 0.00 2.76 0.55 80 1004.7
20260505152541 62 221 3.0 8.0 0.00 2.76 0.55 81 1004.7
20260505152103 62 278 3.0 8.0 0.00 2.76 0.55 81 1004.8
20260505151534 63 236 2.0 8.0 0.00 2.76 0.55 80 1004.8
20260505151034 63 227 4.0 10.0 0.00 2.76 0.55 80 1004.7
20260505150539 63 323 3.0 9.0 0.00 2.76 0.55 81 1004.7
20260505140525 62 224 3.0 10.0 0.00 2.76 0.55 86 1004.9
20260505125034 59 233 4.0 9.0 0.00 2.76 0.55 92 1005.0
20260505124538 60 219 3.0 9.0 0.00 2.76 0.55 92 1005.0
20260505124044 60 202 5.0 10.0 0.00 2.76 0.55 92 1005.0
20260505123534 60 246 6.0 10.0 0.00 2.76 0.55 91 1004.9
20260505123038 61 167 6.0 11.0 0.00 2.76 0.55 90 1004.9
20260505122606 62 194 6.0 11.0 0.00 2.76 0.55 89 1004.9
20260505122045 62 217 6.0 12.0 0.00 2.76 0.55 88 1004.8
20260505121532 62 215 6.0 12.0 0.00 2.76 0.55 88 1004.8
20260505121030 62 229 5.0 10.0 0.00 2.76 0.55 88 1004.8
20260505120535 62 227 4.0 10.0 0.00 2.76 0.55 91 1004.8
20260505120034 62 207 5.0 8.0 0.00 2.80 0.55 91 1004.8
20260505115549 61 213 5.0 8.0 0.04 2.80 0.55 91 1004.8
20260505115045 62 209 4.0 8.0 0.04 2.80 0.55 92 1004.8